{"data":{"norad_id":61510,"epoch":"2026-05-25T05:24:59.928768Z","epoch_age_seconds":55846,"freshness":"FRESH","line1":"1 61510U 24183B   26145.22569362  .00000448  00000+0  26187-4 0  9997","line2":"2 61510  53.1590 146.7276 0001035  84.9804 275.1316 15.31705017 91378","mean_motion":15.31705017,"eccentricity":0.0001035,"inclination_deg":53.159,"raan_deg":146.7276,"arg_perigee_deg":84.9804,"mean_anomaly_deg":275.1316,"bstar":2.6187e-5,"rev_number":9137,"period_min":94.012880027016,"perigee_km":470.01618262941,"apogee_km":471.43389707166,"semimajor_km":6848.8620398505,"source":"CELESTRAK","updated_at":"2026-05-25T13:38:19.368402Z"}}